FW3899 Weather Reports


Display with metric or nautical units.
time (UTC)temp
F
wind
direction
speed
MPH
gust
MPH
rain 1hr
in
rain 24hr
in
rain mn
in
humidity
%
barometer
mb
20260902130140 78 271 4.0 15.0 0.00 0.00 0.00 48 1019.7
20260902124539 78 268 9.0 14.0 0.00 0.00 0.00 49 1019.7
20260902123037 78 282 6.0 11.0 0.00 0.00 0.00 47 1019.8
20260902121535 77 283 9.0 12.0 0.00 0.00 0.00 49 1019.8
20260902120037 77 279 2.0 17.0 0.00 0.00 0.00 53 1019.9
20260902114540 77 306 5.0 11.0 0.00 0.00 0.00 55 1020.3
20260902113030 76 248 6.0 11.0 0.00 0.00 0.00 57 1020.2
20260902111527 75 311 4.0 10.0 0.00 0.00 0.00 61 1020.4
20260902110031 74 282 3.0 10.0 0.00 0.00 0.00 59 1020.5
20260902104541 73 285 6.0 14.0 0.00 0.00 0.00 59 1020.8
20260902103018 72 222 8.0 13.0 0.00 0.00 0.00 62 1020.7
20260902101515 71 276 7.0 12.0 0.00 0.00 0.00 64 1020.8
20260902100013 71 248 8.0 12.0 0.00 0.00 0.00 64 1021.0
20260902094513 70 261 7.0 12.0 0.00 0.00 0.00 68 1021.0
20260902093007 69 259 7.0 13.0 0.00 0.00 0.00 69 1021.0
20260902091503 68 199 1.0 7.0 0.00 0.00 0.00 70 1020.6
20260902090001 68 288 3.0 8.0 0.00 0.00 0.00 70 1020.9
20260902084605 67 271 6.0 10.0 0.00 0.00 0.00 72 1020.7
20260902083109 67 250 7.0 10.0 0.00 0.00 0.00 70 1020.7
20260902081612 67 45 0.0 0.0 0.00 0.00 0.00 74 1020.5
20260902080058 66 78 0.0 0.0 0.00 0.00 0.00 74 1020.4
20260902074547 64 70 0.0 0.0 0.00 0.00 0.00 75 1020.5
20260902073043 63 79 0.0 0.0 0.00 0.00 0.00 78 1020.3
20260902071540 61 316 0.0 0.0 0.00 0.00 0.00 80 1020.5
20260902070038 61 313 0.0 0.0 0.00 0.00 0.00 82 1020.4
20260902064535 60 75 0.0 0.0 0.00 0.00 0.00 82 1020.3
20260902063035 60 205 0.0 0.0 0.00 0.00 0.00 82 1020.4
20260902061528 59 204 0.0 0.0 0.00 0.00 0.00 83 1020.5
20260902060032 57 207 0.0 0.0 0.00 0.00 0.00 86 1020.5
20260902054524 55 207 0.0 0.0 0.00 0.00 0.00 87 1020.5
20260902053019 55 207 0.0 0.0 0.00 0.00 0.00 87 1020.1
20260902051516 54 207 0.0 0.0 0.00 0.00 0.00 87 1020.1
20260902050020 54 207 0.0 0.0 0.00 0.00 0.00 87 1020.1
20260902044532 54 207 0.0 0.0 0.00 0.00 0.00 89 1019.9
20260902043011 53 207 0.0 0.0 0.00 0.00 0.00 87 1020.0
20260902041515 53 207 0.0 0.0 0.00 0.00 0.00 87 1020.0
20260902040011 53 207 0.0 0.0 0.00 0.00 0.00 86 1020.0
20260902034510 53 207 0.0 0.0 0.00 0.00 0.00 87 1019.9
20260902033009 53 207 0.0 0.0 0.00 0.00 0.00 86 1019.9
20260902031516 53 207 0.0 0.0 0.00 0.00 0.00 86 1019.9
20260902030008 53 207 0.0 0.0 0.00 0.00 0.00 86 1019.8
20260902024506 54 207 0.0 0.0 0.00 0.00 0.00 85 1019.8
20260902023004 54 207 0.0 0.0 0.00 0.00 0.00 86 1019.9
20260902021503 54 207 0.0 0.0 0.00 0.00 0.00 84 1019.8
20260902020001 55 207 0.0 2.0 0.00 0.00 0.00 84 1019.8
20260902014603 55 207 1.0 3.0 0.00 0.00 0.00 84 1019.8
20260902013102 55 207 1.0 2.0 0.00 0.00 0.00 85 1019.8
20260902011558 55 207 2.0 3.0 0.00 0.00 0.00 84 1020.0
20260902010058 55 207 0.0 4.0 0.00 0.00 0.00 84 1020.1
20260902004554 55 207 0.0 2.0 0.00 0.00 0.00 83 1020.2
20260902003056 56 207 0.0 2.0 0.00 0.00 0.00 82 1020.1
20260902001552 56 207 2.0 3.0 0.00 0.00 0.00 82 1020.1
20260902000051 56 206 0.0 2.0 0.00 0.00 0.00 82 1020.1
20260901234603 56 206 0.0 3.0 0.00 0.00 0.00 81 1020.1
20260901233053 57 206 0.0 0.0 0.00 0.00 0.00 79 1020.2
20260901231544 58 206 1.0 3.0 0.00 0.00 0.00 77 1020.1
20260901230050 58 206 1.0 3.0 0.00 0.00 0.00 76 1020.1
20260901224544 58 206 0.0 0.0 0.00 0.00 0.00 77 1020.1
20260901223041 59 206 0.0 2.0 0.00 0.00 0.00 76 1020.1
20260901221602 59 206 1.0 2.0 0.00 0.00 0.00 75 1020.0
20260901220036 59 206 1.0 3.0 0.00 0.00 0.00 76 1020.2
20260901214536 59 206 1.0 3.0 0.00 0.00 0.00 77 1020.1
20260901213039 59 206 1.0 3.0 0.00 0.00 0.00 77 1020.2
20260901211537 59 206 2.0 4.0 0.00 0.00 0.00 77 1020.3
20260901210038 59 206 3.0 4.0 0.00 0.00 0.00 77 1020.3
20260901204536 59 206 1.0 3.0 0.00 0.00 0.00 77 1020.3
20260901203047 60 206 3.0 4.0 0.00 0.00 0.00 77 1020.4
20260901201544 60 206 1.0 3.0 0.00 0.00 0.00 77 1020.3
20260901200034 60 206 1.0 3.0 0.00 0.00 0.00 76 1020.1
20260901194531 60 206 1.0 3.0 0.00 0.00 0.00 76 1020.2
20260901193032 61 206 2.0 4.0 0.00 0.00 0.00 75 1020.3
20260901191530 61 206 0.0 2.0 0.00 0.00 0.00 74 1020.2
20260901190035 62 206 0.0 3.0 0.00 0.00 0.00 74 1020.1
20260901184530 63 206 1.0 2.0 0.00 0.00 0.00 72 1019.8
20260901183029 64 206 2.0 3.0 0.00 0.00 0.00 71 1019.6
20260901181528 66 208 1.0 4.0 0.00 0.00 0.00 69 1019.6
20260901180028 68 265 0.0 2.0 0.00 0.00 0.00 65 1019.5
20260901174531 70 314 0.0 2.0 0.00 0.00 0.00 64 1019.4
20260901173027 71 314 0.0 4.0 0.00 0.00 0.00 58 1019.3
20260901171526 72 309 0.0 1.0 0.00 0.00 0.00 55 1019.2
20260901170026 73 307 1.0 4.0 0.00 0.00 0.00 56 1019.3
20260901164525 73 317 1.0 4.0 0.00 0.00 0.00 56 1019.4
20260901163024 73 311 1.0 4.0 0.00 0.00 0.00 57 1019.5
20260901161534 74 303 1.0 5.0 0.00 0.00 0.00 56 1019.4
20260901160034 74 296 3.0 7.0 0.00 0.00 0.00 56 1019.5
20260901154523 73 354 2.0 6.0 0.00 0.00 0.00 55 1019.4
20260901153019 74 314 2.0 6.0 0.00 0.00 0.00 54 1019.4
20260901151519 75 347 2.0 5.0 0.00 0.00 0.00 53 1019.4
20260901150018 75 303 4.0 7.0 0.00 0.00 0.00 53 1019.4
20260901144518 76 300 1.0 9.0 0.00 0.00 0.00 52 1019.4
20260901143016 76 292 4.0 8.0 0.00 0.00 0.00 55 1019.4
20260901141514 74 311 1.0 7.0 0.00 0.00 0.00 58 1019.4
20260901140015 74 32 1.0 7.0 0.00 0.00 0.00 54 1019.6
20260901134516 73 77 0.0 4.0 0.00 0.00 0.00 59 1019.7
20260901133011 73 260 2.0 6.0 0.00 0.00 0.00 57 1019.8
20260901131513 75 301 3.0 10.0 0.00 0.00 0.00 55 1019.8